Weather History for K5C1 - April, 2013

Change the Weather History Date:

Thursday, April 18, 2013

  Actual Average (KSAT) Record (KSAT)
Temperature  
Mean Temperature 63 °F 70 °F  
Max Temperature 73 °F 81 °F 100 °F (2006)
Min Temperature 51 °F 59 °F 42 °F (1947)
Degree Days  
Heating Degree Days 2 1  
Month to date heating degree days 33  
Since 1 July heating degree days 1488  
Cooling Degree Days 0 6  
Month to date cooling degree days 84  
Year to date cooling degree days 175  
Growing Degree Days 13 (Base 50)    
Moisture  
Dew Point 48 °F    
Average Humidity 63    
Maximum Humidity 94    
Minimum Humidity 30    
Precipitation  
Precipitation 0.13 in 0.07 in 6.78 in (1915)
Month to date precipitation 1.11  
Year to date precipitation 6.97  
Snow  
Snow 0.00 in - - ()
Month to date snowfall  
Since 1 July snowfall  
Snow Depth -    
Sea Level Pressure  
Sea Level Pressure 29.86 in    
Wind  
Wind Speed 13 mph (NNE)    
Max Wind Speed 22 mph    
Max Gust Speed 31 mph    
Visibility 9 miles    
Events      
T = Trace of Precipitation, MM = Missing Value Source: NWS Daily Summary

Daily Weather History Graph

Daily Weather History Graph

Search for Another Location

Airport or City:

Trip Planner

Search our weather history database for the weather conditions in past years. The results will help you decide how hot, cold, wet, or windy it might be!

Date:

Astronomy

Apr. 18, 2013 Rise Set
Actual Time 7:04 AM CDT 8:03 PM CDT
Civil Twilight 6:40 AM CDT 8:28 PM CDT
Nautical Twilight 6:11 AM CDT 8:57 PM CDT
Astronomical Twilight 5:41 AM CDT 9:27 PM CDT
Moon 1:22 PM CDT (4/18) 2:13 AM CDT (4/18)
Length of Visible Light 13h 48m
Length of Day
12h 59m
First Quarter, 52% of the Moon is Illuminated
Apr 18
First Quarter
Apr 25
Full
May 2
Last Quarter
May 9
New
May 17
First Quarter

Hourly Weather History & Observations

Time (CDT) Temp. Dew Point Humidity Pressure Visibility Wind Dir Wind Speed Gust Speed Precip Events Conditions
12:15 AM 71.6 °F 68.0 °F 88% 29.75 in 4.0 mi SSE 11.5 mph 18.4 mph N/A   Overcast
12:35 AM 73.4 °F 68.0 °F 83% 29.75 in 5.0 mi SSE 11.5 mph 17.3 mph N/A   Overcast
12:55 AM 73.4 °F 68.0 °F 83% 29.75 in 5.0 mi SSE 13.8 mph 19.6 mph N/A   Overcast
1:15 AM 73.4 °F 68.0 °F 83% 29.74 in 7.0 mi SSE 12.7 mph 18.4 mph N/A   Overcast
1:35 AM 73.4 °F 68.0 °F 83% 29.74 in 7.0 mi SSE 11.5 mph 19.6 mph N/A   Overcast
1:55 AM 71.6 °F 68.0 °F 88% 29.74 in 7.0 mi South 11.5 mph 17.3 mph N/A   Overcast
2:15 AM 71.6 °F 68.0 °F 88% 29.73 in 7.0 mi SSE 8.1 mph 16.1 mph N/A   Overcast
2:35 AM 71.6 °F 66.2 °F 83% 29.72 in 10.0 mi SSE 8.1 mph - N/A   Overcast
2:55 AM 71.6 °F 66.2 °F 83% 29.71 in 10.0 mi SSE 11.5 mph 19.6 mph N/A   Overcast
3:15 AM 71.6 °F 66.2 °F 83% 29.69 in 10.0 mi SSE 12.7 mph 17.3 mph N/A   Overcast
3:35 AM 71.6 °F 66.2 °F 83% 29.69 in 10.0 mi SSE 11.5 mph 19.6 mph N/A   Overcast
3:55 AM 71.6 °F 66.2 °F 83% 29.68 in 10.0 mi SSE 8.1 mph 21.9 mph N/A   Overcast
4:15 AM 71.6 °F 66.2 °F 83% 29.69 in 10.0 mi SSE 13.8 mph 17.3 mph N/A   Overcast
4:35 AM 71.6 °F 66.2 °F 83% 29.68 in 10.0 mi South 13.8 mph 19.6 mph N/A   Overcast
4:55 AM 71.6 °F 66.2 °F 83% 29.69 in 10.0 mi SSE 10.4 mph 17.3 mph N/A   Overcast
5:15 AM 71.6 °F 64.4 °F 78% 29.69 in 10.0 mi South 8.1 mph - N/A   Overcast
5:35 AM 71.6 °F 64.4 °F 78% 29.69 in 10.0 mi SSE 9.2 mph - N/A   Overcast
5:55 AM 71.6 °F 64.4 °F 78% 29.69 in 10.0 mi SSE 8.1 mph - N/A   Overcast
6:15 AM 71.6 °F 64.4 °F 78% 29.69 in 7.0 mi SSE 6.9 mph - N/A   Overcast
6:35 AM 71.6 °F 66.2 °F 83% 29.69 in 7.0 mi SSE 9.2 mph - N/A   Overcast
6:55 AM 71.6 °F 66.2 °F 83% 29.74 in 7.0 mi WNW 4.6 mph - N/A   Overcast
7:15 AM 64.4 °F 60.8 °F 88% 29.77 in 3.0 mi NNW 13.8 mph 23.0 mph 0.05 in   Overcast
7:35 AM 59.0 °F 55.4 °F 88% 29.79 in 3.0 mi North 12.7 mph 21.9 mph 0.12 in   Overcast
7:55 AM 59.0 °F 55.4 °F 88% 29.81 in 4.0 mi NNW 13.8 mph 18.4 mph 0.12 in   Overcast
8:15 AM 59.0 °F 53.6 °F 82% 29.82 in 7.0 mi North 13.8 mph 23.0 mph N/A   Overcast
8:35 AM 57.2 °F 53.6 °F 88% 29.83 in 10.0 mi North 15.0 mph 27.6 mph N/A   Overcast
8:55 AM 55.4 °F 53.6 °F 94% 29.84 in 10.0 mi North 15.0 mph 24.2 mph N/A   Overcast
9:15 AM 55.4 °F 51.8 °F 88% 29.85 in 10.0 mi North 16.1 mph 24.2 mph N/A   Overcast
9:35 AM 53.6 °F 50.0 °F 88% 29.86 in 10.0 mi North 18.4 mph 24.2 mph 0.01 in   Overcast
9:55 AM 53.6 °F 48.2 °F 82% 29.87 in 10.0 mi North 18.4 mph 31.1 mph 0.01 in   Overcast
10:15 AM 53.6 °F 46.4 °F 77% 29.87 in 10.0 mi North 20.7 mph 26.5 mph N/A   Overcast
10:35 AM 53.6 °F 46.4 °F 77% 29.87 in 10.0 mi North 18.4 mph 21.9 mph N/A   Overcast
10:55 AM 53.6 °F 46.4 °F 77% 29.88 in 10.0 mi North 19.6 mph 25.3 mph N/A   Overcast
11:15 AM 55.4 °F 44.6 °F 67% 29.88 in 10.0 mi North 17.3 mph 31.1 mph N/A   Overcast
11:35 AM 53.6 °F 44.6 °F 72% 29.89 in 10.0 mi North 12.7 mph 27.6 mph N/A   Overcast
11:55 AM 53.6 °F 42.8 °F 67% 29.89 in 10.0 mi North 15.0 mph 27.6 mph N/A   Overcast
12:15 PM 55.4 °F 42.8 °F 63% 29.89 in 10.0 mi North 18.4 mph 27.6 mph N/A   Overcast
12:35 PM 55.4 °F 42.8 °F 63% 29.90 in 10.0 mi North 17.3 mph 27.6 mph N/A   Overcast
12:55 PM 59.0 °F 41.0 °F 51% 29.90 in 10.0 mi North 21.9 mph 28.8 mph N/A   Overcast
1:15 PM 57.2 °F 42.8 °F 59% 29.91 in 10.0 mi North 19.6 mph 27.6 mph N/A   Overcast
1:35 PM 59.0 °F 41.0 °F 51% 29.91 in 10.0 mi North 20.7 mph 27.6 mph N/A   Mostly Cloudy
1:55 PM 59.0 °F 41.0 °F 51% 29.91 in 10.0 mi North 17.3 mph 27.6 mph N/A   Scattered Clouds
2:15 PM 60.8 °F 41.0 °F 48% 29.91 in 10.0 mi North 15.0 mph 25.3 mph N/A   Mostly Cloudy
2:35 PM 62.6 °F 41.0 °F 45% 29.91 in 10.0 mi North 16.1 mph 26.5 mph N/A   Scattered Clouds
2:55 PM 62.6 °F 39.2 °F 42% 29.91 in 10.0 mi North 15.0 mph 27.6 mph N/A   Clear
3:15 PM 64.4 °F 39.2 °F 40% 29.91 in 10.0 mi North 15.0 mph 27.6 mph N/A   Clear
3:35 PM 62.6 °F 37.4 °F 39% 29.92 in 10.0 mi North 16.1 mph 26.5 mph N/A   Clear
3:55 PM 64.4 °F 37.4 °F 37% 29.91 in 10.0 mi North 11.5 mph 25.3 mph N/A   Clear
4:15 PM 62.6 °F 35.6 °F 37% 29.92 in 10.0 mi North 15.0 mph 26.5 mph N/A   Clear
4:35 PM 62.6 °F 33.8 °F 34% 29.92 in 10.0 mi North 16.1 mph 26.5 mph N/A   Clear
4:55 PM 62.6 °F 33.8 °F 34% 29.92 in 10.0 mi North 12.7 mph 24.2 mph N/A   Clear
5:15 PM 64.4 °F 35.6 °F 34% 29.93 in 10.0 mi North 16.1 mph 25.3 mph N/A   Clear
5:35 PM 64.4 °F 32.0 °F 30% 29.93 in 10.0 mi North 18.4 mph 26.5 mph N/A   Clear
5:55 PM 64.4 °F 32.0 °F 30% 29.94 in 10.0 mi North 12.7 mph 21.9 mph N/A   Clear
6:15 PM 64.4 °F 33.8 °F 32% 29.94 in 10.0 mi North 13.8 mph 24.2 mph N/A   Clear
6:35 PM 62.6 °F 33.8 °F 34% 29.95 in 10.0 mi North 16.1 mph 21.9 mph N/A   Clear
6:55 PM 62.6 °F 33.8 °F 34% 29.96 in 10.0 mi North 10.4 mph 21.9 mph N/A   Clear
7:15 PM 62.6 °F 32.0 °F 32% 29.97 in 10.0 mi North 15.0 mph 23.0 mph N/A   Clear
7:35 PM 60.8 °F 32.0 °F 34% 29.98 in 10.0 mi North 17.3 mph 23.0 mph N/A   Clear
7:55 PM 60.8 °F 33.8 °F 36% 29.99 in 10.0 mi North 10.4 mph 21.9 mph N/A   Clear
8:15 PM 59.0 °F 33.8 °F 39% 30.01 in 10.0 mi North 10.4 mph - N/A   Clear
8:35 PM 59.0 °F 32.0 °F 36% 30.02 in 10.0 mi North 10.4 mph 17.3 mph N/A   Clear
9:55 PM 53.6 °F 33.8 °F 47% 30.05 in 10.0 mi NNE 9.2 mph - N/A   Clear
10:15 PM 53.6 °F 33.8 °F 47% 30.07 in 10.0 mi North 10.4 mph 18.4 mph N/A   Clear
10:35 PM 53.6 °F 32.0 °F 44% 30.06 in 10.0 mi North 13.8 mph 21.9 mph N/A   Clear
10:55 PM 53.6 °F 32.0 °F 44% 30.06 in 10.0 mi North 12.7 mph 19.6 mph N/A   Clear
11:15 PM 53.6 °F 32.0 °F 44% 30.06 in 10.0 mi North 17.3 mph 24.2 mph N/A   Clear
11:35 PM 53.6 °F 32.0 °F 44% 30.06 in 10.0 mi North 19.6 mph 29.9 mph N/A   Clear
11:55 PM 51.8 °F 32.0 °F 47% 30.06 in 10.0 mi North 16.1 mph 28.8 mph N/A   Clear